Regional Weather Roundup
Issued by NWS

Home | Current Version | Previous Version | Text Only | Print | Product List | Glossary Off
Versions: 1 2 3 4 5 6 7 8 9 10 11 12 13 14 15 16 17 18 19 20 21 22 23 24 25 26 27 28 29 30 31 32 33 34 35 36 37 38 39 40 41 42 43 44 45 46 47 48 49 50

000
ASUS45 KABQ 171301
RWRNM
NEW MEXICO REGIONAL WEATHER ROUNDUP
NATIONAL WEATHER SERVICE ALBUQUERQUE NM
600 AM MST TUE JAN 17 2017

NOTE: "FAIR" MEANS FEW OR NO CLOUDS BELOW 12,000 FEET AGL WITH NO
       SIGNIFICANT WEATHER OR OBSTRUCTIONS TO VISION.

      THIS PRODUCT IS RELEASED AS TWO VERSIONS.  ONE VERSION NEAR
      THE TOP OF THE HOUR CONTAINING PRELIMINARY DATA FROM ALBUQUERQUE
      AND OTHER STATIONS.  A FINAL VERSION WITH ADDITIONAL DATA IS
      ISSUED ABOUT 10 MINUTES AFTER THE HOUR.

NMZ501-503-504-510>518-171400-
NORTHWEST PLATEAU/NORTHCENTRAL MOUNTAINS

CITY           SKY/WX    TMP DP  RH WIND       PRES   REMARKS
FARMINGTON     CLOUDY    33  32  96 NE3       30.11S
LOS ALAMOS     MOCLDY    30  30 100 SW6       30.13R WCI  24
SANTA FE       CLOUDY    32  30  92 CALM      30.13R
TAOS           CLOUDY    32  25  74 CALM      30.12S
ANGEL FIRE     CLOUDY    29  26  88 W6        30.11S WCI  23

$$
NMZ402-403-502-505>509-171400-
WESTCENTRAL MOUNTAINS/SOUTHWEST MOUNTAINS

CITY           SKY/WX    TMP DP  RH WIND       PRES   REMARKS
GALLUP         FLURRIES  32  30  92 NE6       30.10R WCI  26
GRANTS         FOG       33  33 100 CALM      30.12R VSB 1/4
SILVER CITY    FAIR      30  28  94 NW3       30.05R

$$
NMZ407-409-411-412-171400-
SOUTHERN DESERTS

CITY           SKY/WX    TMP DP  RH WIND       PRES   REMARKS
DEMING         FAIR      34  33  96 E6        30.05R WCI  29
LAS CRUCES     FAIR      36  35  96 NW7       30.06S WCI  30
HOLLOMAN AFB   FAIR      35  34  97 S6        30.10R WCI  30
ALAMOGORDO     FAIR      36  34  93 S6        30.07S WCI  31
T OR C         FAIR      36  34  92 N3        30.06S

$$
NMZ519>523-171400-
CENTRAL VALLEYS/CENTRAL HIGHLANDS

CITY           SKY/WX    TMP DP  RH WIND       PRES   REMARKS
ALBUQUERQUE    MOCLDY    37  35  92 N10       30.11S WCI  30
DOUBLE EAGLE   MOCLDY    34  34 100 N8        30.12S WCI  27
MORIARTY ARPT  MOCLDY    32  30  92 S6        30.14S WCI  26
CLINES CORNERS CLOUDY    25  23  92 CALM      30.12S FOG
BELEN          CLOUDY    39  39 100 NW3       30.11R
SOCORRO        MOCLDY    37  36  95 NW6       30.09S WCI  33

$$
NMZ524>526-539-540-171400-
SOUTHCENTRAL MOUNTAINS

CITY           SKY/WX    TMP DP  RH WIND       PRES   REMARKS
RUIDOSO        CLOUDY    32  32 100 SE7       30.14R WCI  26

$$
NMZ527>531-171400-
NORTHEAST HIGHLANDS/NORTHEAST PLAINS

CITY           SKY/WX    TMP DP  RH WIND       PRES   REMARKS
LAS VEGAS      FAIR      24  23  96 SW7       30.11S FOG     WCI  16
RATON          FAIR      18  14  84 N3        30.10S
CLAYTON        FAIR      26  25  96 W8        30.12S WCI  18

$$
NMZ532>537-171400-
EASTCENTRAL PLAINS

CITY           SKY/WX    TMP DP  RH WIND       PRES   REMARKS
TUCUMCARI      FAIR      30  29  96 SW6       30.15R WCI  24
CANNON AFB     FAIR      30  30 100 S5        30.15R WCI  25
CLOVIS AIRPORT FAIR      30  27  86 CALM      30.14R

$$
NMZ028-029-538-171400-
SOUTHEAST PLAINS

CITY           SKY/WX    TMP DP  RH WIND       PRES   REMARKS
ROSWELL        CLOUDY    41  33  73 N5        30.16R
ARTESIA        CLOUDY    39  37  93 N7        30.17R WCI  34
CARLSBAD       FAIR      36  35  96 N3        30.16R
HOBBS          PTCLDY    32  32 100 N8        30.16  WCI  25


$$



USA.gov is the U.S. government's official web portal to all federal, state and local government web resources and services.